owner,sensor,date,latitude,longitude,vertical_datum,wind_speed,wind_to_direction,wind_speed_of_gust,qcFlag 
ADCP,ioos:station:wmo:42361:1,2013-12-01T00:30:00Z,27.5500,-92.4900,122.0,5.6,35.0,99.0,'11111222,11111222,11144222' 
ADCP,ioos:station:wmo:42361:1,2013-12-01T01:30:00Z,27.5500,-92.4900,122.0,6.7,48.0,99.0,'11111222,11111222,11144222' 
ADCP,ioos:station:wmo:42361:1,2013-12-01T02:30:00Z,27.5500,-92.4900,122.0,6.3,56.0,99.0,'11111222,11111222,11144222' 
ADCP,ioos:station:wmo:42361:1,2013-12-01T03:30:00Z,27.5500,-92.4900,122.0,6.4,75.0,99.0,'11111222,11111222,11144222' 
ADCP,ioos:station:wmo:42361:1,2013-12-01T04:30:00Z,27.5500,-92.4900,122.0,4.4,63.0,99.0,'11111222,11111222,11144222' 
ADCP,ioos:station:wmo:42361:1,2013-12-01T05:30:00Z,27.5500,-92.4900,122.0,4.1,66.0,99.0,'11111222,11111222,11144222' 
ADCP,ioos:station:wmo:42361:1,2013-12-01T06:30:00Z,27.5500,-92.4900,122.0,4.4,93.0,99.0,'11111222,11111222,11144222' 
ADCP,ioos:station:wmo:42361:1,2013-12-01T07:30:00Z,27.5500,-92.4900,122.0,4.3,116.0,99.0,'11111222,11111222,11144222' 
ADCP,ioos:station:wmo:42361:1,2013-12-01T08:30:00Z,27.5500,-92.4900,122.0,1.8,82.0,99.0,'11111222,11111222,11144222' 
ADCP,ioos:station:wmo:42361:1,2013-12-01T09:30:00Z,27.5500,-92.4900,122.0,1.4,95.0,99.0,'11111222,11111222,11144222' 
ADCP,ioos:station:wmo:42361:1,2013-12-01T10:30:00Z,27.5500,-92.4900,122.0,2.1,117.0,99.0,'11111222,11111222,11144222' 
ADCP,ioos:station:wmo:42361:1,2013-12-01T11:30:00Z,27.5500,-92.4900,122.0,1.6,113.0,99.0,'11111222,11111222,11144222' 
ADCP,ioos:station:wmo:42361:1,2013-12-01T12:30:00Z,27.5500,-92.4900,122.0,0.8,17.0,99.0,'11111222,11111222,11144222' 
ADCP,ioos:station:wmo:42361:1,2013-12-01T13:30:00Z,27.5500,-92.4900,122.0,2.9,356.0,99.0,'11111222,11111222,11144222' 
ADCP,ioos:station:wmo:42361:1,2013-12-01T14:30:00Z,27.5500,-92.4900,122.0,3.1,25.0,99.0,'11111222,11111222,11144222' 
ADCP,ioos:station:wmo:42361:1,2013-12-01T15:30:00Z,27.5500,-92.4900,122.0,3.4,45.0,99.0,'11111222,11111222,11144222' 
ADCP,ioos:station:wmo:42361:1,2013-12-01T16:30:00Z,27.5500,-92.4900,122.0,3.9,49.0,99.0,'11111222,11111222,11144222' 
ADCP,ioos:station:wmo:42361:1,2013-12-01T17:30:00Z,27.5500,-92.4900,122.0,4.6,49.0,99.0,'11111222,11111222,11144222' 
ADCP,ioos:station:wmo:42361:1,2013-12-01T18:30:00Z,27.5500,-92.4900,122.0,4.1,46.0,99.0,'11111222,11111222,11144222' 
ADCP,ioos:station:wmo:42361:1,2013-12-01T19:30:00Z,27.5500,-92.4900,122.0,2.7,42.0,99.0,'11111222,11111222,11144222' 
ADCP,ioos:station:wmo:42361:1,2013-12-01T20:30:00Z,27.5500,-92.4900,122.0,0.8,25.0,99.0,'11111222,11111222,11144222' 
ADCP,ioos:station:wmo:42361:1,2013-12-01T21:30:00Z,27.5500,-92.4900,122.0,1.2,28.0,99.0,'11111222,11111222,11144222' 
ADCP,ioos:station:wmo:42361:1,2013-12-01T22:30:00Z,27.5500,-92.4900,122.0,2.2,27.0,99.0,'11111222,11111222,11144222' 
ADCP,ioos:station:wmo:42361:1,2013-12-01T23:30:00Z,27.5500,-92.4900,122.0,1.9,21.0,99.0,'11111222,11111222,11144222' 
ADCP,ioos:station:wmo:42361:1,2013-12-02T00:30:00Z,27.5500,-92.4900,122.0,1.9,32.0,99.0,'11111222,11111222,11144222' 
ADCP,ioos:station:wmo:42361:1,2013-12-02T01:30:00Z,27.5500,-92.4900,122.0,0.7,27.0,99.0,'11111222,11111222,11144222' 
ADCP,ioos:station:wmo:42361:1,2013-12-02T02:30:00Z,27.5500,-92.4900,122.0,0.6,49.0,99.0,'11111222,11111222,11144222' 
ADCP,ioos:station:wmo:42361:1,2013-12-02T03:30:00Z,27.5500,-92.4900,122.0,1.3,87.0,99.0,'11111222,11111222,11144222' 
ADCP,ioos:station:wmo:42361:1,2013-12-02T04:30:00Z,27.5500,-92.4900,122.0,3.3,117.0,99.0,'11111222,11111222,11144222' 
ADCP,ioos:station:wmo:42361:1,2013-12-02T05:30:00Z,27.5500,-92.4900,122.0,4.1,149.0,99.0,'11111222,11111222,11144222' 
ADCP,ioos:station:wmo:42361:1,2013-12-02T06:30:00Z,27.5500,-92.4900,122.0,4.3,175.0,99.0,'11111222,11111222,11144222' 
ADCP,ioos:station:wmo:42361:1,2013-12-02T07:30:00Z,27.5500,-92.4900,122.0,5.0,176.0,99.0,'11111222,11111222,11144222' 
ADCP,ioos:station:wmo:42361:1,2013-12-02T08:30:00Z,27.5500,-92.4900,122.0,5.0,190.0,99.0,'11111222,11111222,11144222' 
ADCP,ioos:station:wmo:42361:1,2013-12-02T09:30:00Z,27.5500,-92.4900,122.0,5.1,195.0,99.0,'11111222,11111222,11144222' 
ADCP,ioos:station:wmo:42361:1,2013-12-02T10:30:00Z,27.5500,-92.4900,122.0,4.6,216.0,99.0,'11111222,11111222,11144222' 
ADCP,ioos:station:wmo:42361:1,2013-12-02T11:30:00Z,27.5500,-92.4900,122.0,4.0,207.0,99.0,'11111222,11111222,11144222' 
ADCP,ioos:station:wmo:42361:1,2013-12-02T12:30:00Z,27.5500,-92.4900,122.0,3.7,182.0,99.0,'11111222,11111222,11144222' 
ADCP,ioos:station:wmo:42361:1,2013-12-02T13:30:00Z,27.5500,-92.4900,122.0,4.7,177.0,99.0,'11111222,11111222,11144222' 
ADCP,ioos:station:wmo:42361:1,2013-12-02T14:30:00Z,27.5500,-92.4900,122.0,5.6,176.0,99.0,'11111222,11111222,11144222' 
ADCP,ioos:station:wmo:42361:1,2013-12-02T15:30:00Z,27.5500,-92.4900,122.0,6.7,173.0,99.0,'11111222,11111222,11144222' 
ADCP,ioos:station:wmo:42361:1,2013-12-02T16:30:00Z,27.5500,-92.4900,122.0,7.4,173.0,99.0,'11111222,11111222,11144222' 
ADCP,ioos:station:wmo:42361:1,2013-12-02T17:30:00Z,27.5500,-92.4900,122.0,7.3,187.0,99.0,'11111222,11111222,11144222' 
ADCP,ioos:station:wmo:42361:1,2013-12-02T18:30:00Z,27.5500,-92.4900,122.0,7.2,195.0,99.0,'11111222,11111222,11144222' 
ADCP,ioos:station:wmo:42361:1,2013-12-02T19:30:00Z,27.5500,-92.4900,122.0,7.8,191.0,99.0,'11111222,11111222,11144222' 
ADCP,ioos:station:wmo:42361:1,2013-12-02T20:30:00Z,27.5500,-92.4900,122.0,8.2,190.0,99.0,'11111222,11111222,11144222' 
ADCP,ioos:station:wmo:42361:1,2013-12-02T21:30:00Z,27.5500,-92.4900,122.0,7.5,180.0,99.0,'11111222,11111222,11144222' 
ADCP,ioos:station:wmo:42361:1,2013-12-02T22:30:00Z,27.5500,-92.4900,122.0,8.1,180.0,99.0,'11111222,11111222,11144222' 
ADCP,ioos:station:wmo:42361:1,2013-12-02T23:30:00Z,27.5500,-92.4900,122.0,7.6,178.0,99.0,'11111222,11111222,11144222' 
ADCP,ioos:station:wmo:42361:1,2013-12-03T00:30:00Z,27.5500,-92.4900,122.0,8.3,172.0,99.0,'11111222,11111222,11144222' 
ADCP,ioos:station:wmo:42361:1,2013-12-03T01:30:00Z,27.5500,-92.4900,122.0,9.3,174.0,99.0,'11111222,11111222,11144222' 
ADCP,ioos:station:wmo:42361:1,2013-12-03T02:30:00Z,27.5500,-92.4900,122.0,9.8,170.0,99.0,'11111222,11111222,11144222' 
ADCP,ioos:station:wmo:42361:1,2013-12-03T03:30:00Z,27.5500,-92.4900,122.0,10.0,175.0,99.0,'11111222,11111222,11144222' 
ADCP,ioos:station:wmo:42361:1,2013-12-03T04:30:00Z,27.5500,-92.4900,122.0,10.9,180.0,99.0,'11111222,11111222,11144222' 
ADCP,ioos:station:wmo:42361:1,2013-12-03T05:30:00Z,27.5500,-92.4900,122.0,11.0,180.0,99.0,'11111222,11111222,11144222' 
ADCP,ioos:station:wmo:42361:1,2013-12-03T06:30:00Z,27.5500,-92.4900,122.0,10.9,180.0,99.0,'11111222,11111222,11144222' 
ADCP,ioos:station:wmo:42361:1,2013-12-03T07:30:00Z,27.5500,-92.4900,122.0,11.1,178.0,99.0,'11111222,11111222,11144222' 
ADCP,ioos:station:wmo:42361:1,2013-12-03T08:30:00Z,27.5500,-92.4900,122.0,10.6,177.0,99.0,'11111222,11111222,11144222' 
ADCP,ioos:station:wmo:42361:1,2013-12-03T09:30:00Z,27.5500,-92.4900,122.0,9.9,173.0,99.0,'11111222,11111222,11144222' 
ADCP,ioos:station:wmo:42361:1,2013-12-03T10:30:00Z,27.5500,-92.4900,122.0,11.2,175.0,99.0,'11111222,11111222,11144222' 
ADCP,ioos:station:wmo:42361:1,2013-12-03T11:30:00Z,27.5500,-92.4900,122.0,11.4,176.0,99.0,'11111222,11111222,11144222' 
ADCP,ioos:station:wmo:42361:1,2013-12-03T12:30:00Z,27.5500,-92.4900,122.0,11.4,170.0,99.0,'11111222,11111222,11144222' 
ADCP,ioos:station:wmo:42361:1,2013-12-03T13:30:00Z,27.5500,-92.4900,122.0,12.4,172.0,99.0,'11111222,11111222,11144222' 
ADCP,ioos:station:wmo:42361:1,2013-12-03T14:30:00Z,27.5500,-92.4900,122.0,12.8,172.0,99.0,'11111222,11111222,11144222' 
ADCP,ioos:station:wmo:42361:1,2013-12-03T15:30:00Z,27.5500,-92.4900,122.0,12.6,179.0,99.0,'11111222,11111222,11144222' 
ADCP,ioos:station:wmo:42361:1,2013-12-03T16:30:00Z,27.5500,-92.4900,122.0,11.4,171.0,99.0,'11111222,11111222,11144222' 
ADCP,ioos:station:wmo:42361:1,2013-12-03T17:30:00Z,27.5500,-92.4900,122.0,10.6,170.0,99.0,'11111222,11111222,11144222' 
ADCP,ioos:station:wmo:42361:1,2013-12-03T18:30:00Z,27.5500,-92.4900,122.0,9.9,170.0,99.0,'11111222,11111222,11144222' 
ADCP,ioos:station:wmo:42361:1,2013-12-03T19:30:00Z,27.5500,-92.4900,122.0,9.0,170.0,99.0,'11111222,11111222,11144222' 
ADCP,ioos:station:wmo:42361:1,2013-12-03T20:30:00Z,27.5500,-92.4900,122.0,8.3,170.0,99.0,'11111222,11111222,11144222' 
ADCP,ioos:station:wmo:42361:1,2013-12-03T21:30:00Z,27.5500,-92.4900,122.0,7.5,166.0,99.0,'11111222,11111222,11144222' 
ADCP,ioos:station:wmo:42361:1,2013-12-03T22:30:00Z,27.5500,-92.4900,122.0,6.8,160.0,99.0,'11111222,11111222,11144222' 
ADCP,ioos:station:wmo:42361:1,2013-12-03T23:30:00Z,27.5500,-92.4900,122.0,7.6,161.0,99.0,'11111222,11111222,11144222' 
ADCP,ioos:station:wmo:42361:1,2013-12-04T00:30:00Z,27.5500,-92.4900,122.0,7.6,151.0,99.0,'11111222,11111222,11144222' 
ADCP,ioos:station:wmo:42361:1,2013-12-04T01:30:00Z,27.5500,-92.4900,122.0,8.3,151.0,99.0,'11111222,11111222,11144222' 
ADCP,ioos:station:wmo:42361:1,2013-12-04T02:30:00Z,27.5500,-92.4900,122.0,8.6,157.0,99.0,'11111222,11111222,11144222' 
ADCP,ioos:station:wmo:42361:1,2013-12-04T03:30:00Z,27.5500,-92.4900,122.0,9.1,156.0,99.0,'11111222,11111222,11144222' 
ADCP,ioos:station:wmo:42361:1,2013-12-04T04:30:00Z,27.5500,-92.4900,122.0,9.2,151.0,99.0,'11111222,11111222,11144222' 
ADCP,ioos:station:wmo:42361:1,2013-12-04T05:30:00Z,27.5500,-92.4900,122.0,8.5,147.0,99.0,'11111222,11111222,11144222' 
ADCP,ioos:station:wmo:42361:1,2013-12-04T06:30:00Z,27.5500,-92.4900,122.0,8.3,150.0,99.0,'11111222,11111222,11144222' 
ADCP,ioos:station:wmo:42361:1,2013-12-04T07:30:00Z,27.5500,-92.4900,122.0,7.7,149.0,99.0,'11111222,11111222,11144222' 
ADCP,ioos:station:wmo:42361:1,2013-12-04T08:30:00Z,27.5500,-92.4900,122.0,7.8,150.0,99.0,'11111222,11111222,11144222' 
ADCP,ioos:station:wmo:42361:1,2013-12-04T09:30:00Z,27.5500,-92.4900,122.0,8.1,150.0,99.0,'11111222,11111222,11144222' 
ADCP,ioos:station:wmo:42361:1,2013-12-04T10:30:00Z,27.5500,-92.4900,122.0,9.1,150.0,99.0,'11111222,11111222,11144222' 
ADCP,ioos:station:wmo:42361:1,2013-12-04T11:30:00Z,27.5500,-92.4900,122.0,10.0,150.0,99.0,'11111222,11111222,11144222' 
ADCP,ioos:station:wmo:42361:1,2013-12-04T12:30:00Z,27.5500,-92.4900,122.0,11.4,150.0,99.0,'11111222,11111222,11144222' 
ADCP,ioos:station:wmo:42361:1,2013-12-04T13:30:00Z,27.5500,-92.4900,122.0,9.5,149.0,99.0,'11111222,11111222,11144222' 
ADCP,ioos:station:wmo:42361:1,2013-12-04T14:30:00Z,27.5500,-92.4900,122.0,9.1,147.0,99.0,'11111222,11111222,11144222' 
ADCP,ioos:station:wmo:42361:1,2013-12-04T15:30:00Z,27.5500,-92.4900,122.0,9.6,146.0,99.0,'11111222,11111222,11144222' 
ADCP,ioos:station:wmo:42361:1,2013-12-04T16:30:00Z,27.5500,-92.4900,122.0,9.6,140.0,99.0,'11111222,11111222,11144222' 
ADCP,ioos:station:wmo:42361:1,2013-12-04T17:30:00Z,27.5500,-92.4900,122.0,10.1,137.0,99.0,'11111222,11111222,11144222' 
ADCP,ioos:station:wmo:42361:1,2013-12-04T18:30:00Z,27.5500,-92.4900,122.0,9.7,140.0,99.0,'11111222,11111222,11144222' 
ADCP,ioos:station:wmo:42361:1,2013-12-04T19:30:00Z,27.5500,-92.4900,122.0,9.8,140.0,99.0,'11111222,11111222,11144222' 
ADCP,ioos:station:wmo:42361:1,2013-12-04T20:30:00Z,27.5500,-92.4900,122.0,9.8,140.0,99.0,'11111222,11111222,11144222' 
ADCP,ioos:station:wmo:42361:1,2013-12-04T21:30:00Z,27.5500,-92.4900,122.0,10.3,140.0,99.0,'11111222,11111222,11144222' 
ADCP,ioos:station:wmo:42361:1,2013-12-04T22:30:00Z,27.5500,-92.4900,122.0,9.8,138.0,99.0,'11111222,11111222,11144222' 
ADCP,ioos:station:wmo:42361:1,2013-12-04T23:30:00Z,27.5500,-92.4900,122.0,10.2,140.0,99.0,'11111222,11111222,11144222' 
ADCP,ioos:station:wmo:42361:1,2013-12-05T00:30:00Z,27.5500,-92.4900,122.0,10.5,138.0,99.0,'11111222,11111222,11144222' 
ADCP,ioos:station:wmo:42361:1,2013-12-05T01:30:00Z,27.5500,-92.4900,122.0,10.9,135.0,99.0,'11111222,11111222,11144222' 
ADCP,ioos:station:wmo:42361:1,2013-12-05T02:30:00Z,27.5500,-92.4900,122.0,10.7,130.0,99.0,'11111222,11111222,11144222' 
ADCP,ioos:station:wmo:42361:1,2013-12-05T03:30:00Z,27.5500,-92.4900,122.0,10.6,130.0,99.0,'11111222,11111222,11144222' 
ADCP,ioos:station:wmo:42361:1,2013-12-05T04:30:00Z,27.5500,-92.4900,122.0,11.9,131.0,99.0,'11111222,11111222,11144222' 
ADCP,ioos:station:wmo:42361:1,2013-12-05T05:30:00Z,27.5500,-92.4900,122.0,11.5,138.0,99.0,'11111222,11111222,11144222' 
ADCP,ioos:station:wmo:42361:1,2013-12-05T06:30:00Z,27.5500,-92.4900,122.0,10.8,140.0,99.0,'11111222,11111222,11144222' 
ADCP,ioos:station:wmo:42361:1,2013-12-05T07:30:00Z,27.5500,-92.4900,122.0,9.6,141.0,99.0,'11111222,11111222,11144222' 
ADCP,ioos:station:wmo:42361:1,2013-12-05T08:30:00Z,27.5500,-92.4900,122.0,8.7,146.0,99.0,'11111222,11111222,11144222' 
ADCP,ioos:station:wmo:42361:1,2013-12-05T09:30:00Z,27.5500,-92.4900,122.0,8.9,142.0,99.0,'11111222,11111222,11144222' 
ADCP,ioos:station:wmo:42361:1,2013-12-05T10:30:00Z,27.5500,-92.4900,122.0,8.3,143.0,99.0,'11111222,11111222,11144222' 
ADCP,ioos:station:wmo:42361:1,2013-12-05T11:30:00Z,27.5500,-92.4900,122.0,7.5,139.0,99.0,'11111222,11111222,11144222' 
ADCP,ioos:station:wmo:42361:1,2013-12-05T12:30:00Z,27.5500,-92.4900,122.0,7.1,135.0,99.0,'11111222,11111222,11144222' 
ADCP,ioos:station:wmo:42361:1,2013-12-05T13:30:00Z,27.5500,-92.4900,122.0,8.9,131.0,99.0,'11111222,11111222,11144222' 
ADCP,ioos:station:wmo:42361:1,2013-12-05T14:30:00Z,27.5500,-92.4900,122.0,11.1,132.0,99.0,'11111222,11111222,11144222' 
ADCP,ioos:station:wmo:42361:1,2013-12-05T15:30:00Z,27.5500,-92.4900,122.0,11.1,138.0,99.0,'11111222,11111222,11144222' 
ADCP,ioos:station:wmo:42361:1,2013-12-05T16:30:00Z,27.5500,-92.4900,122.0,9.7,136.0,99.0,'11111222,11111222,11144222' 
ADCP,ioos:station:wmo:42361:1,2013-12-05T17:30:00Z,27.5500,-92.4900,122.0,11.0,130.0,99.0,'11111222,11111222,11144222' 
ADCP,ioos:station:wmo:42361:1,2013-12-05T18:30:00Z,27.5500,-92.4900,122.0,10.7,136.0,99.0,'11111222,11111222,11144222' 
ADCP,ioos:station:wmo:42361:1,2013-12-05T19:30:00Z,27.5500,-92.4900,122.0,10.9,142.0,99.0,'11111222,11111222,11144222' 
ADCP,ioos:station:wmo:42361:1,2013-12-05T20:30:00Z,27.5500,-92.4900,122.0,10.8,140.0,99.0,'11111222,11111222,11144222' 
ADCP,ioos:station:wmo:42361:1,2013-12-05T21:30:00Z,27.5500,-92.4900,122.0,10.3,137.0,99.0,'11111222,11111222,11144222' 
ADCP,ioos:station:wmo:42361:1,2013-12-05T22:30:00Z,27.5500,-92.4900,122.0,10.1,140.0,99.0,'11111222,11111222,11144222' 
ADCP,ioos:station:wmo:42361:1,2013-12-05T23:30:00Z,27.5500,-92.4900,122.0,10.2,132.0,99.0,'11111222,11111222,11144222' 
ADCP,ioos:station:wmo:42361:1,2013-12-06T00:30:00Z,27.5500,-92.4900,122.0,10.5,130.0,99.0,'11111222,11111222,11144222' 
ADCP,ioos:station:wmo:42361:1,2013-12-06T01:30:00Z,27.5500,-92.4900,122.0,12.0,134.0,99.0,'11111222,11111222,11144222' 
ADCP,ioos:station:wmo:42361:1,2013-12-06T02:30:00Z,27.5500,-92.4900,122.0,12.1,134.0,99.0,'11111222,11111222,11144222' 
ADCP,ioos:station:wmo:42361:1,2013-12-06T03:30:00Z,27.5500,-92.4900,122.0,11.3,133.0,99.0,'11111222,11111222,11144222' 
ADCP,ioos:station:wmo:42361:1,2013-12-06T04:30:00Z,27.5500,-92.4900,122.0,10.0,134.0,99.0,'11111222,11111222,11144222' 
ADCP,ioos:station:wmo:42361:1,2013-12-06T05:30:00Z,27.5500,-92.4900,122.0,10.4,130.0,99.0,'11111222,11111222,11144222' 
ADCP,ioos:station:wmo:42361:1,2013-12-06T06:30:00Z,27.5500,-92.4900,122.0,12.0,130.0,99.0,'11111222,11111222,11144222' 
ADCP,ioos:station:wmo:42361:1,2013-12-06T07:30:00Z,27.5500,-92.4900,122.0,12.6,130.0,99.0,'11111222,11111222,11144222' 
ADCP,ioos:station:wmo:42361:1,2013-12-06T08:30:00Z,27.5500,-92.4900,122.0,11.7,130.0,99.0,'11111222,11111222,11144222' 
ADCP,ioos:station:wmo:42361:1,2013-12-06T09:30:00Z,27.5500,-92.4900,122.0,11.6,132.0,99.0,'11111222,11111222,11144222' 
ADCP,ioos:station:wmo:42361:1,2013-12-06T10:30:00Z,27.5500,-92.4900,122.0,10.7,140.0,99.0,'11111222,11111222,11144222' 
ADCP,ioos:station:wmo:42361:1,2013-12-06T11:30:00Z,27.5500,-92.4900,122.0,10.8,142.0,99.0,'11111222,11111222,11144222' 
ADCP,ioos:station:wmo:42361:1,2013-12-06T12:30:00Z,27.5500,-92.4900,122.0,9.1,150.0,99.0,'11111222,11111222,11144222' 
ADCP,ioos:station:wmo:42361:1,2013-12-06T13:30:00Z,27.5500,-92.4900,122.0,8.6,150.0,99.0,'11111222,11111222,11144222' 
ADCP,ioos:station:wmo:42361:1,2013-12-06T14:30:00Z,27.5500,-92.4900,122.0,7.9,150.0,99.0,'11111222,11111222,11144222' 
ADCP,ioos:station:wmo:42361:1,2013-12-06T15:30:00Z,27.5500,-92.4900,122.0,8.1,152.0,99.0,'11111222,11111222,11144222' 
ADCP,ioos:station:wmo:42361:1,2013-12-06T16:30:00Z,27.5500,-92.4900,122.0,9.1,153.0,99.0,'11111222,11111222,11144222' 
ADCP,ioos:station:wmo:42361:1,2013-12-06T17:30:00Z,27.5500,-92.4900,122.0,9.6,161.0,99.0,'11111222,11111222,11144222' 
ADCP,ioos:station:wmo:42361:1,2013-12-06T18:30:00Z,27.5500,-92.4900,122.0,9.7,161.0,99.0,'11111222,11111222,11144222' 
ADCP,ioos:station:wmo:42361:1,2013-12-06T19:30:00Z,27.5500,-92.4900,122.0,9.6,166.0,99.0,'11111222,11111222,11144222' 
ADCP,ioos:station:wmo:42361:1,2013-12-06T20:30:00Z,27.5500,-92.4900,122.0,9.6,168.0,99.0,'11111222,11111222,11144222' 
ADCP,ioos:station:wmo:42361:1,2013-12-06T21:30:00Z,27.5500,-92.4900,122.0,8.9,180.0,99.0,'11111222,11111222,11144222' 
ADCP,ioos:station:wmo:42361:1,2013-12-06T22:30:00Z,27.5500,-92.4900,122.0,13.2,324.0,99.0,'11111222,11111222,11144222' 
ADCP,ioos:station:wmo:42361:1,2013-12-06T23:30:00Z,27.5500,-92.4900,122.0,13.9,330.0,99.0,'11111222,11111222,11144222' 
ADCP,ioos:station:wmo:42361:1,2013-12-07T00:30:00Z,27.5500,-92.4900,122.0,12.8,337.0,99.0,'11111222,11111222,11144222' 
ADCP,ioos:station:wmo:42361:1,2013-12-07T01:30:00Z,27.5500,-92.4900,122.0,13.6,337.0,99.0,'11111222,11111222,11144222' 
ADCP,ioos:station:wmo:42361:1,2013-12-07T02:30:00Z,27.5500,-92.4900,122.0,13.4,340.0,99.0,'11111222,11111222,11144222' 
ADCP,ioos:station:wmo:42361:1,2013-12-07T03:30:00Z,27.5500,-92.4900,122.0,13.4,340.0,99.0,'11111222,11111222,11144222' 
ADCP,ioos:station:wmo:42361:1,2013-12-07T04:30:00Z,27.5500,-92.4900,122.0,13.4,342.0,99.0,'11111222,11111222,11144222' 
ADCP,ioos:station:wmo:42361:1,2013-12-07T05:30:00Z,27.5500,-92.4900,122.0,13.3,341.0,99.0,'11111222,11111222,11144222' 
ADCP,ioos:station:wmo:42361:1,2013-12-07T06:30:00Z,27.5500,-92.4900,122.0,12.4,347.0,99.0,'11111222,11111222,11144222' 
ADCP,ioos:station:wmo:42361:1,2013-12-07T07:30:00Z,27.5500,-92.4900,122.0,12.3,348.0,99.0,'11111222,11111222,11144222' 
ADCP,ioos:station:wmo:42361:1,2013-12-07T08:30:00Z,27.5500,-92.4900,122.0,12.2,350.0,99.0,'11111222,11111222,11144222' 
ADCP,ioos:station:wmo:42361:1,2013-12-07T09:30:00Z,27.5500,-92.4900,122.0,12.8,350.0,99.0,'11111222,11111222,11144222' 
ADCP,ioos:station:wmo:42361:1,2013-12-07T10:30:00Z,27.5500,-92.4900,122.0,12.6,351.0,99.0,'11111222,11111222,11144222' 
ADCP,ioos:station:wmo:42361:1,2013-12-07T11:30:00Z,27.5500,-92.4900,122.0,12.0,357.0,99.0,'11111222,11111222,11144222' 
ADCP,ioos:station:wmo:42361:1,2013-12-07T12:30:00Z,27.5500,-92.4900,122.0,10.9,1.0,99.0,'11111222,11111222,11144222' 
ADCP,ioos:station:wmo:42361:1,2013-12-07T13:30:00Z,27.5500,-92.4900,122.0,11.2,2.0,99.0,'11111222,11111222,11144222' 
ADCP,ioos:station:wmo:42361:1,2013-12-07T14:30:00Z,27.5500,-92.4900,122.0,10.8,1.0,99.0,'11111222,11111222,11144222' 
ADCP,ioos:station:wmo:42361:1,2013-12-07T15:30:00Z,27.5500,-92.4900,122.0,10.3,5.0,99.0,'11111222,11111222,11144222' 
ADCP,ioos:station:wmo:42361:1,2013-12-07T16:30:00Z,27.5500,-92.4900,122.0,9.8,8.0,99.0,'11111222,11111222,11144222' 
ADCP,ioos:station:wmo:42361:1,2013-12-07T17:30:00Z,27.5500,-92.4900,122.0,8.9,13.0,99.0,'11111222,11111222,11144222' 
ADCP,ioos:station:wmo:42361:1,2013-12-07T18:30:00Z,27.5500,-92.4900,122.0,8.5,4.0,99.0,'11111222,11111222,11144222' 
ADCP,ioos:station:wmo:42361:1,2013-12-07T19:30:00Z,27.5500,-92.4900,122.0,9.0,8.0,99.0,'11111222,11111222,11144222' 
ADCP,ioos:station:wmo:42361:1,2013-12-07T20:30:00Z,27.5500,-92.4900,122.0,9.9,5.0,99.0,'11111222,11111222,11144222' 
ADCP,ioos:station:wmo:42361:1,2013-12-07T21:30:00Z,27.5500,-92.4900,122.0,11.0,9.0,99.0,'11111222,11111222,11144222' 
ADCP,ioos:station:wmo:42361:1,2013-12-07T22:30:00Z,27.5500,-92.4900,122.0,9.7,16.0,99.0,'11111222,11111222,11144222' 
ADCP,ioos:station:wmo:42361:1,2013-12-07T23:30:00Z,27.5500,-92.4900,122.0,9.8,11.0,99.0,'11111222,11111222,11144222' 
ADCP,ioos:station:wmo:42361:1,2013-12-08T00:30:00Z,27.5500,-92.4900,122.0,10.8,14.0,99.0,'11111222,11111222,11144222' 
ADCP,ioos:station:wmo:42361:1,2013-12-08T01:30:00Z,27.5500,-92.4900,122.0,11.1,21.0,99.0,'11111222,11111222,11144222' 
ADCP,ioos:station:wmo:42361:1,2013-12-08T02:30:00Z,27.5500,-92.4900,122.0,10.9,18.0,99.0,'11111222,11111222,11144222' 
ADCP,ioos:station:wmo:42361:1,2013-12-08T03:30:00Z,27.5500,-92.4900,122.0,11.0,28.0,99.0,'11111222,11111222,11144222' 
ADCP,ioos:station:wmo:42361:1,2013-12-08T04:30:00Z,27.5500,-92.4900,122.0,11.7,31.0,99.0,'11111222,11111222,11144222' 
ADCP,ioos:station:wmo:42361:1,2013-12-08T05:30:00Z,27.5500,-92.4900,122.0,10.9,23.0,99.0,'11111222,11111222,11144222' 
ADCP,ioos:station:wmo:42361:1,2013-12-08T06:30:00Z,27.5500,-92.4900,122.0,10.9,21.0,99.0,'11111222,11111222,11144222' 
ADCP,ioos:station:wmo:42361:1,2013-12-08T07:30:00Z,27.5500,-92.4900,122.0,11.9,24.0,99.0,'11111222,11111222,11144222' 
ADCP,ioos:station:wmo:42361:1,2013-12-08T08:30:00Z,27.5500,-92.4900,122.0,12.2,28.0,99.0,'11111222,11111222,11144222' 
ADCP,ioos:station:wmo:42361:1,2013-12-08T09:30:00Z,27.5500,-92.4900,122.0,12.7,25.0,99.0,'11111222,11111222,11144222' 
ADCP,ioos:station:wmo:42361:1,2013-12-08T10:30:00Z,27.5500,-92.4900,122.0,13.0,30.0,99.0,'11111222,11111222,11144222' 
ADCP,ioos:station:wmo:42361:1,2013-12-08T11:30:00Z,27.5500,-92.4900,122.0,12.7,39.0,99.0,'11111222,11111222,11144222' 
ADCP,ioos:station:wmo:42361:1,2013-12-08T12:30:00Z,27.5500,-92.4900,122.0,11.9,39.0,99.0,'11111222,11111222,11144222' 
ADCP,ioos:station:wmo:42361:1,2013-12-08T13:30:00Z,27.5500,-92.4900,122.0,10.8,38.0,99.0,'11111222,11111222,11144222' 
ADCP,ioos:station:wmo:42361:1,2013-12-08T14:30:00Z,27.5500,-92.4900,122.0,6.8,38.0,99.0,'11111222,11111222,11144222' 
ADCP,ioos:station:wmo:42361:1,2013-12-08T15:30:00Z,27.5500,-92.4900,122.0,10.2,121.0,99.0,'11111222,11111222,11144222' 
ADCP,ioos:station:wmo:42361:1,2013-12-08T16:30:00Z,27.5500,-92.4900,122.0,12.2,132.0,99.0,'11111222,11111222,11144222' 
ADCP,ioos:station:wmo:42361:1,2013-12-08T17:30:00Z,27.5500,-92.4900,122.0,11.8,142.0,99.0,'11111222,11111222,11144222' 
ADCP,ioos:station:wmo:42361:1,2013-12-08T18:30:00Z,27.5500,-92.4900,122.0,10.4,150.0,99.0,'11111222,11111222,11144222' 
ADCP,ioos:station:wmo:42361:1,2013-12-08T19:30:00Z,27.5500,-92.4900,122.0,10.0,158.0,99.0,'11111222,11111222,11144222' 
ADCP,ioos:station:wmo:42361:1,2013-12-08T20:30:00Z,27.5500,-92.4900,122.0,10.4,160.0,99.0,'11111222,11111222,11144222' 
ADCP,ioos:station:wmo:42361:1,2013-12-08T21:30:00Z,27.5500,-92.4900,122.0,9.9,160.0,99.0,'11111222,11111222,11144222' 
ADCP,ioos:station:wmo:42361:1,2013-12-08T22:30:00Z,27.5500,-92.4900,122.0,10.0,160.0,99.0,'11111222,11111222,11144222' 
ADCP,ioos:station:wmo:42361:1,2013-12-08T23:30:00Z,27.5500,-92.4900,122.0,10.0,160.0,99.0,'11111222,11111222,11144222' 
ADCP,ioos:station:wmo:42361:1,2013-12-09T00:30:00Z,27.5500,-92.4900,122.0,9.9,162.0,99.0,'11111222,11111222,11144222' 
ADCP,ioos:station:wmo:42361:1,2013-12-09T01:30:00Z,27.5500,-92.4900,122.0,8.4,160.0,99.0,'11111222,11111222,11144222' 
ADCP,ioos:station:wmo:42361:1,2013-12-09T02:30:00Z,27.5500,-92.4900,122.0,7.9,150.0,99.0,'11111222,11111222,11144222' 
ADCP,ioos:station:wmo:42361:1,2013-12-09T03:30:00Z,27.5500,-92.4900,122.0,7.4,150.0,99.0,'11111222,11111222,11144222' 
ADCP,ioos:station:wmo:42361:1,2013-12-09T04:30:00Z,27.5500,-92.4900,122.0,8.0,155.0,99.0,'11111222,11111222,11144222' 
ADCP,ioos:station:wmo:42361:1,2013-12-09T05:30:00Z,27.5500,-92.4900,122.0,6.9,153.0,99.0,'11111222,11111222,11144222' 
ADCP,ioos:station:wmo:42361:1,2013-12-09T06:30:00Z,27.5500,-92.4900,122.0,5.2,223.0,99.0,'11111222,11111222,11144222' 
ADCP,ioos:station:wmo:42361:1,2013-12-09T07:30:00Z,27.5500,-92.4900,122.0,7.5,342.0,99.0,'11111222,11111222,11144222' 